星链-32883 (STARLINK-32883)

导读

STARLINK-32883是美国太空探索技术公司(SpaceX)于2025年1月24日发射的星链(Starlink)系列卫星,属于SpaceX全球卫星互联网组网计划的组成部分。星链项目计划部署总计超4万颗低轨卫星,通过星间激光通信技术,为全球偏远地区、海洋、极地等区域提供高速低延迟的宽带互联网接入服务,该卫星也将参与天地一体化网络构建,进一步扩大星链系统的全球覆盖能力。

基本信息
目录编号:
62806
目录名称:
STARLINK-32883
国际标识:
2025-018A
轨道中心:
EARTH
卫星名称:
星链-32883
卫星全名:
星链-32883 (STARLINK-32883)
卫星状态:
在轨 (已飞行506 天)
发射日期:
2025-01-24 UTC
国别 :
美国 (US)
星等 :
--
轨道信息
数据来源 国际轨道数据 AOE轨道数据
星历时间 2026-06-13T21:37:54+0800
18小时前
查看轨道信息
2026-06-10T07:00:00+0800
4天前
查看轨道信息
半长轴 6840.844km 6840.775km
偏心率 0.0001223 0.0001459
轨道倾角 53.159° 53.158°
近地点辐角 86.975° 74.808°
升交点赤经 223.843° 240.718°
平近点角 273.140° 135.181°
近地点 461.87km 461.639km
远地点 463.544km 463.637km
周期 93.848分钟 93.846分钟
每日圈数 15.343988 15.344221
详细信息
固有亮度:
5
最大亮度:
2.5
卫星平台:
Starlink V1.0
覆盖范围:
全球
运营商:
太空探索技术公司
运营商所在国:
美国
制造商(研发单位):
太空探索技术公司
制造商所在国:
美国
使用方式:
暂无
卫星简介
Starlink 计划是 SpaceX 推出的全球卫星互联网项目,通过发射低轨道卫星,为全球尤其是偏远地区提供高速、低延迟的互联网服务。自 2019 年起,Starlink 已部署数千颗卫星,旨在缩小全球数字鸿沟,推动互联网普及。该项目还为军事、航空等行业提供通信支持,带来广泛经济效益。
2D轨道图
3D轨道图
轨道高度分析图
轨道倾角分析图
轨道综合分析图
查看轨道综合分析图